User: anonymous   Login
Location: Alta
(39.2070°N, 120.8111°W)
Time: 03:01:28
(UTC+00:00)
Language:

JUGNU - Orbit

View from above orbital plane
View from above orbital plane
View from above satellite
View from above satellite

Ground track
Ground track

The orbit data is extracted from the following two-line orbital elements,

1 37839U 11058B   23087.76346652  .00000696  00000-0  22746-3 0  9999
2 37839  19.9604 250.8679 0018945  51.9039  68.7351 14.12916434592508
Epoch (UTC): 28 March 2023 18:19:23
Eccentricity: 0.0018945
inclination: 19.9604°
perigee height: 836 km
apogee height: 863 km
right ascension of ascending node: 250.8679°
argument of perigee: 51.9039°
revolutions per day: 14.12916434
mean anomaly at epoch: 68.7351°
orbit number at epoch: 59250

The dashed part of the orbit path shows where the satellite is in the earth's shadow,  

DLR